Weather History for Rush City, MN

Change the Weather History Date:

Saturday, April 5, 2014

  Actual Average (KCBG) Record (KCBG)
Temperature  
Mean Temperature 30 °F -  
Max Temperature 44 °F 49 °F 80 °F (1991)
Min Temperature 15 °F 27 °F 7 °F (1979)
Degree Days  
Heating Degree Days 36    
Moisture  
Dew Point 25 °F    
Average Humidity 74    
Maximum Humidity 95    
Minimum Humidity 53    
Precipitation  
Precipitation 0.00 in - - ()
Sea Level Pressure  
Sea Level Pressure 30.02 in    
Wind  
Wind Speed 5 mph (South)    
Max Wind Speed 14 mph    
Max Gust Speed 18 mph    
Visibility 10 miles    
Events      
Averages and records for this station are not official NWS values.
T = Trace of Precipitation, MM = Missing Value Source: NWS Daily Summary

Daily Weather History Graph

Daily Weather History Graph

Search for Another Location

Airport:

Trip Planner

Search our weather history database for the weather conditions in past years. The results will help you decide how hot, cold, wet, or windy it might be!

Date:

Astronomy

Apr. 05, 2014 Rise Set
Actual Time 6:44 AM CDT 7:45 PM CDT
Civil Twilight 6:14 AM CDT 8:15 PM CDT
Nautical Twilight 5:37 AM CDT 8:52 PM CDT
Astronomical Twilight 4:59 AM CDT 9:30 PM CDT
Moon 10:41 AM CDT (4/5) 1:06 AM CDT (4/5)
Length of Visible Light 14h 01m
Length of Day
13h 01m
Waxing Crescent, 34% of the Moon is Illuminated
Apr 5
Waxing Crescent
Apr 7
First Quarter
Apr 15
Full
Apr 22
Last Quarter
Apr 29
New

Hourly Weather History & Observations

Time (CDT) Temp. Windchill Dew Point Humidity Pressure Visibility Wind Dir Wind Speed Gust Speed Precip Events Conditions
12:15 AM 28.8 °F - 18.9 °F 67% 30.01 in 10.0 mi Calm Calm - N/A   Clear
12:34 AM 27.7 °F 23.8 °F 18.5 °F 68% 30.02 in 10.0 mi West 3.5 mph - N/A   Clear
12:55 AM 27.9 °F 22.6 °F 18.5 °F 68% 30.02 in 10.0 mi WSW 4.6 mph - N/A   Clear
1:15 AM 26.6 °F 22.6 °F 18.3 °F 71% 30.03 in 10.0 mi West 3.5 mph - N/A   Clear
1:35 AM 25.7 °F - 18.9 °F 75% 30.03 in 10.0 mi Calm Calm - N/A   Clear
1:55 AM 25.3 °F 21.1 °F 19.4 °F 78% 30.03 in 10.0 mi West 3.5 mph - N/A   Clear
2:15 AM 24.8 °F 20.5 °F 19.4 °F 80% 30.03 in 10.0 mi West 3.5 mph - N/A   Clear
2:35 AM 24.6 °F 20.3 °F 19.9 °F 82% 30.04 in 10.0 mi West 3.5 mph - N/A   Clear
2:55 AM 23.4 °F 17.4 °F 19.2 °F 84% 30.04 in 10.0 mi West 4.6 mph - N/A   Clear
3:15 AM 23.0 °F 17.0 °F 19.4 °F 86% 30.04 in 10.0 mi West 4.6 mph - N/A   Clear
3:35 AM 22.6 °F 16.5 °F 19.4 °F 87% 30.04 in 10.0 mi West 4.6 mph - N/A   Clear
3:55 AM 21.9 °F 17.2 °F 19.4 °F 90% 30.05 in 10.0 mi West 3.5 mph - N/A   Clear
4:15 AM 22.1 °F 17.4 °F 19.8 °F 91% 30.05 in 10.0 mi WSW 3.5 mph - N/A   Clear
4:35 AM 23.4 °F 17.4 °F 21.2 °F 91% 30.05 in 10.0 mi WSW 4.6 mph - N/A   Clear
4:55 AM 23.7 °F 19.3 °F 21.6 °F 91% 30.05 in 10.0 mi West 3.5 mph - N/A   Clear
5:15 AM 22.1 °F - 20.3 °F 93% 30.05 in 10.0 mi Calm Calm - N/A   Clear
5:35 AM 21.2 °F 16.4 °F 19.6 °F 93% 30.05 in 10.0 mi West 3.5 mph - N/A   Clear
5:55 AM 21.0 °F - 19.4 °F 93% 30.05 in 10.0 mi Calm Calm - N/A   Clear
6:15 AM 20.8 °F - 19.2 °F 93% 30.05 in 10.0 mi Calm Calm - N/A   Clear
6:35 AM 19.6 °F - 18.0 °F 93% 30.06 in 2.0 mi Calm Calm - N/A   Clear
6:55 AM 17.1 °F - 14.9 °F 91% 30.07 in 1.8 mi Calm Calm - N/A   Mist
7:15 AM 15.4 °F - 13.6 °F 93% 30.07 in 10.0 mi Calm Calm - N/A   Clear
7:35 AM 18.3 °F - 16.7 °F 93% 30.07 in 7.0 mi Calm Calm - N/A   Clear
7:55 AM 19.9 °F - 18.5 °F 94% 30.08 in 7.0 mi Calm Calm - N/A   Clear
8:15 AM 22.6 °F - 21.2 °F 94% 30.08 in 10.0 mi Calm Calm - N/A   Clear
8:35 AM 24.4 °F 20.1 °F 23.0 °F 94% 30.08 in 10.0 mi SSE 3.5 mph - N/A   Clear
8:55 AM 24.6 °F - 23.0 °F 94% 30.09 in 10.0 mi Calm Calm - N/A   Clear
9:15 AM 25.7 °F 21.5 °F 24.4 °F 95% 30.09 in 10.0 mi South 3.5 mph - N/A   Clear
9:35 AM 27.3 °F 23.4 °F 25.7 °F 94% 30.09 in 10.0 mi South 3.5 mph - N/A   Clear
9:55 AM 29.5 °F 25.9 °F 26.6 °F 89% 30.09 in 10.0 mi South 3.5 mph - N/A   Clear
10:15 AM 31.5 °F 25.8 °F 26.1 °F 80% 30.09 in 10.0 mi South 5.8 mph - N/A   Clear
10:35 AM 33.1 °F 27.7 °F 26.1 °F 75% 30.09 in 10.0 mi South 5.8 mph - N/A   Clear
10:55 AM 35.1 °F 28.6 °F 26.2 °F 70% 30.08 in 10.0 mi South 8.1 mph - N/A   Clear
11:15 AM 36.0 °F 29.0 °F 26.2 °F 68% 30.08 in 10.0 mi SSW 9.2 mph - N/A   Clear
11:35 AM 36.7 °F 29.9 °F 26.4 °F 66% 30.08 in 10.0 mi South 9.2 mph - N/A   Clear
11:55 AM 37.8 °F 30.7 °F 26.6 °F 64% 30.08 in 10.0 mi SSW 10.4 mph - N/A   Clear
12:15 PM 38.5 °F 32.1 °F 26.6 °F 62% 30.07 in 10.0 mi SSW 9.2 mph - N/A   Clear
12:35 PM 38.8 °F 33.2 °F 26.4 °F 61% 30.07 in 10.0 mi SSW 8.1 mph - N/A   Clear
12:55 PM 39.6 °F 33.5 °F 26.8 °F 60% 30.07 in 10.0 mi South 9.2 mph - N/A   Clear
1:15 PM 40.1 °F 33.2 °F 26.6 °F 59% 30.06 in 10.0 mi South 11.5 mph 16.1 mph N/A   Clear
1:35 PM 40.5 °F 32.8 °F 26.2 °F 57% 30.06 in 10.0 mi SSW 13.8 mph 18.4 mph N/A   Clear
1:55 PM 41.2 °F 35.0 °F 26.2 °F 55% 30.05 in 10.0 mi SSW 10.4 mph - N/A   Clear
2:15 PM 41.9 °F 36.3 °F 26.4 °F 54% 30.04 in 10.0 mi South 9.2 mph 16.1 mph N/A   Clear
2:35 PM 42.1 °F 35.7 °F 26.6 °F 54% 30.04 in 10.0 mi South 11.5 mph 16.1 mph N/A   Clear
2:55 PM 42.3 °F 36.3 °F 26.8 °F 54% 30.03 in 10.0 mi SSW 10.4 mph - N/A   Clear
3:15 PM 43.0 °F 36.8 °F 26.8 °F 53% 30.02 in 10.0 mi South 11.5 mph 17.3 mph N/A   Clear
3:35 PM 42.6 °F 35.9 °F 27.3 °F 55% 30.01 in 10.0 mi South 12.7 mph 18.4 mph N/A   Clear
3:55 PM 42.8 °F 36.2 °F 27.7 °F 55% 30.01 in 10.0 mi SSE 12.7 mph - N/A   Clear
4:15 PM 42.8 °F 36.6 °F 27.9 °F 56% 30.00 in 10.0 mi SSE 11.5 mph - N/A   Clear
4:35 PM 43.5 °F 37.5 °F 27.7 °F 54% 29.99 in 10.0 mi South 11.5 mph - N/A   Clear
4:55 PM 43.3 °F 36.8 °F 27.9 °F 54% 29.99 in 10.0 mi SSE 12.7 mph - N/A   Clear
5:15 PM 43.3 °F 38.6 °F 28.4 °F 56% 29.98 in 10.0 mi SSE 8.1 mph - N/A   Clear
5:35 PM 44.1 °F 38.6 °F 28.6 °F 55% 29.98 in 10.0 mi South 10.4 mph - N/A   Clear
5:55 PM 44.6 °F 39.7 °F 29.1 °F 55% 29.98 in 10.0 mi South 9.2 mph - N/A   Clear
6:15 PM 42.8 °F 38.0 °F 30.4 °F 62% 29.98 in 10.0 mi SSE 8.1 mph - N/A   Clear
6:35 PM 41.9 °F 36.9 °F 31.6 °F 67% 29.98 in 10.0 mi SSE 8.1 mph - N/A   Clear
6:55 PM 41.9 °F 36.9 °F 32.0 °F 68% 29.98 in 10.0 mi SSE 8.1 mph - N/A   Scattered Clouds
7:15 PM 41.5 °F 35.9 °F 32.4 °F 70% 29.96 in 10.0 mi SSE 9.2 mph - N/A   Overcast
7:35 PM 41.9 °F 36.3 °F 32.9 °F 70% 29.96 in 10.0 mi SSE 9.2 mph - N/A   Overcast
7:55 PM 41.2 °F 35.0 °F 32.5 °F 71% 29.96 in 10.0 mi SSE 10.4 mph - N/A   Mostly Cloudy
8:15 PM 40.8 °F 35.6 °F 32.4 °F 72% 29.95 in 10.0 mi SSE 8.1 mph - N/A   Mostly Cloudy
8:35 PM 40.3 °F 34.9 °F 32.2 °F 73% 29.95 in 10.0 mi SSE 8.1 mph - N/A   Scattered Clouds
8:55 PM 39.7 °F 34.3 °F 32.4 °F 75% 29.95 in 10.0 mi SSE 8.1 mph - N/A   Mostly Cloudy
9:15 PM 39.6 °F 34.7 °F 32.4 °F 75% 29.96 in 10.0 mi SSE 6.9 mph - N/A   Overcast
9:35 PM 39.9 °F 35.8 °F 32.5 °F 75% 29.98 in 10.0 mi South 5.8 mph - N/A   Overcast
9:55 PM 39.2 °F 34.2 °F 32.2 °F 76% 29.96 in 10.0 mi SSE 6.9 mph - N/A   Overcast
10:15 PM 39.2 °F 33.0 °F 32.5 °F 77% 29.96 in 10.0 mi SSE 9.2 mph - N/A   Mostly Cloudy
10:35 PM 39.2 °F 33.6 °F 32.4 °F 76% 29.95 in 10.0 mi SSE 8.1 mph - N/A   Overcast
10:55 PM 39.2 °F 33.6 °F 32.7 °F 78% 29.95 in 10.0 mi SSE 8.1 mph - N/A   Mostly Cloudy
11:15 PM 39.4 °F 33.2 °F 32.9 °F 78% 29.94 in 10.0 mi South 9.2 mph - N/A   Mostly Cloudy
11:35 PM 39.4 °F 33.8 °F 32.9 °F 78% 29.94 in 10.0 mi South 8.1 mph - N/A   Mostly Cloudy
11:55 PM 39.6 °F 34.0 °F 32.7 °F 76% 29.94 in 10.0 mi South 8.1 mph - N/A   Overcast